Weather History for KCNM - June, 2013

Change the Weather History Date:

Wednesday, June 26, 2013

  Actual Average Record
Temperature  
Mean Temperature 87 °F -  
Max Temperature 109 °F 95 °F 111 °F (1998)
Min Temperature 66 °F 67 °F 57 °F (2004)
Cooling Degree Days 22    
Growing Degree Days 37 (Base 50)    
Moisture  
Dew Point 38 °F    
Average Humidity 27    
Maximum Humidity 70    
Minimum Humidity 4    
Precipitation  
Precipitation 0.00 in - - ()
Sea Level Pressure  
Sea Level Pressure 29.72 in    
Wind  
Wind Speed 5 mph (SE)    
Max Wind Speed 9 mph    
Max Gust Speed -    
Visibility 10 miles    
Events      
Averages and records for this station are not official NWS values.
T = Trace of Precipitation, MM = Missing Value Source: NWS Daily Summary

Daily Weather History Graph

Daily Weather History Graph

Search for Another Location

Airport or City:

Trip Planner

Search our weather history database for the weather conditions in past years. The results will help you decide how hot, cold, wet, or windy it might be!

Date:

Astronomy

Jun. 26, 2013 Rise Set
Actual Time 5:52 AM MDT 8:07 PM MDT
Civil Twilight 5:23 AM MDT 8:36 PM MDT
Nautical Twilight 4:48 AM MDT 9:10 PM MDT
Astronomical Twilight 4:11 AM MDT 9:48 PM MDT
Moon 10:48 PM MDT (6/26) 9:33 AM MDT (6/26)
Length of Visible Light 15h 12m
Length of Day
14h 15m
Waning Gibbous, 85% of the Moon is Illuminated
Jun 26
Waning Gibbous
Jun 29
Last Quarter
Jul 8
New
Jul 15
First Quarter
Jul 22
Full

Hourly Weather History & Observations

Time (MDT) Temp. Heat Index Dew Point Humidity Pressure Visibility Wind Dir Wind Speed Gust Speed Precip Events Conditions
12:53 AM 82.9 °F 83.7 °F 62.1 °F 49% 29.70 in 10.0 mi SSE 5.8 mph - N/A   Clear
1:53 AM 78.1 °F - 62.1 °F 58% 29.70 in 10.0 mi South 3.5 mph - N/A   Clear
2:53 AM 75.9 °F - 62.1 °F 62% 29.70 in 9.0 mi SSE 5.8 mph - N/A   Clear
3:53 AM 73.0 °F - 59.0 °F 61% 29.71 in 9.0 mi NW 3.5 mph - N/A   Clear
4:53 AM 69.1 °F - 57.9 °F 68% 29.73 in 9.0 mi Calm Calm - N/A   Clear
5:53 AM 66.0 °F - 55.9 °F 70% 29.74 in 8.0 mi SW 3.5 mph - N/A   Clear
6:53 AM 72.0 °F - 60.1 °F 66% 29.75 in 7.0 mi SW 4.6 mph - N/A   Clear
7:53 AM 79.0 °F - 60.1 °F 52% 29.76 in 8.0 mi NW 3.5 mph - N/A   Clear
8:53 AM 84.9 °F 84.2 °F 57.9 °F 40% 29.76 in 9.0 mi Calm Calm - N/A   Clear
9:53 AM 95.0 °F - 48.9 °F 21% 29.76 in 10.0 mi NNE 8.1 mph - N/A   Clear
10:53 AM 98.1 °F - 43.0 °F 15% 29.76 in 10.0 mi NNE 8.1 mph - N/A   Clear
11:53 AM 100.9 °F - 19.0 °F 5% 29.76 in 10.0 mi Variable 3.5 mph - N/A   Clear
12:53 PM 102.0 °F - 25.0 °F 7% 29.75 in 10.0 mi ESE 5.8 mph - N/A   Clear
1:53 PM 105.1 °F - 21.0 °F 5% 29.74 in 10.0 mi Variable 6.9 mph - N/A   Clear
2:53 PM 107.1 °F - 15.1 °F 4% 29.72 in 10.0 mi NE 6.9 mph - N/A   Scattered Clouds
3:53 PM 106.0 °F - 18.0 °F 4% 29.70 in 10.0 mi Calm Calm - N/A   Mostly Cloudy
4:53 PM 108.0 °F - 16.0 °F 4% 29.69 in 10.0 mi ENE 5.8 mph - N/A   Mostly Cloudy
5:53 PM 107.1 °F - 16.0 °F 4% 29.68 in 10.0 mi East 6.9 mph - N/A   Overcast
6:53 PM 105.1 °F - 18.0 °F 4% 29.68 in 10.0 mi ESE 8.1 mph - N/A   Mostly Cloudy
7:53 PM 99.0 °F - 21.9 °F 6% 29.69 in 10.0 mi SE 5.8 mph - N/A   Mostly Cloudy
8:53 PM 89.1 °F - 27.0 °F 11% 29.70 in 10.0 mi South 6.9 mph - N/A   Scattered Clouds
9:53 PM 82.9 °F - 26.1 °F 13% 29.71 in 10.0 mi South 6.9 mph - N/A   Clear
10:53 PM 82.9 °F - 25.0 °F 12% 29.72 in 10.0 mi SSE 9.2 mph - N/A   Clear
11:53 PM 82.0 °F - 36.0 °F 19% 29.73 in 10.0 mi South 9.2 mph - N/A   Clear